{"data":{"norad_id":65108,"intl_designator":"2025-168C","name":"HULIANWANG DIGUI-51","alt_names":[],"object_type":"PAYLOAD","status":"ACTIVE","operator":null,"country":"PRC","launch_date":"2025-08-04","launch_site_code":"WSC","launch_vehicle":null,"mission":null,"orbit_class":"UNKNOWN","rcs_meters":null,"size_class":null,"mass_kg":null,"dimensions":null,"purposes":[],"wikipedia_slug":null,"has_3d_model":false,"image_url":null,"decayed_at":null,"tle_current":{"epoch":"2026-09-21T17:59:57.105600Z","epoch_age_seconds":57201,"freshness":"FRESH","line1":"1 65108U 25168C   26264.74996650 -.00000086  00000+0  81565-4 0  9991","line2":"2 65108  50.0057 339.5066 0009545  15.7293 344.3874 13.29322895 55536","mean_motion":13.29322895,"eccentricity":0.0009545,"inclination_deg":50.0057,"raan_deg":339.5066,"arg_perigee_deg":15.7293,"mean_anomaly_deg":344.3874,"bstar":8.1565e-5,"rev_number":5553,"period_min":108.3258255324,"perigee_km":1142.1333373844,"apogee_km":1156.5032495396,"semimajor_km":7527.455293462,"source":"CELESTRAK","updated_at":"2026-09-22T09:00:30.137179Z"}}}